This demonstration page uses our WeatherBlox Daily Observations layout. Learn more.

Left ArrowRight Arrow

38.83388, -104.82136

Hourly Observations for April 29, 2018

Temp ( °F °C ) Dew Point ( °F °C ) Humidity (%) Winds ( mph kmh ) Pressure ( in mb ) Visibility ( mi km ) Precip ( " mm )
12:58 am 00:58 Mostly Cloudy 57 14.1 31 -0.7 36 36 SSE 5 7 29.43 997 10 16 0.00 0.00
1:43 am 01:43 Mostly Cloudy 57 14 30 -1 36 36 W 16 26 29.40 996 10 16 0.00 0.00
1:59 am 01:59 Mostly Cloudy 57 14.1 31 -0.7 36 36 W 16 26 29.38 995 10 16 0.00 0.00
2:38 am 02:38 Mostly Cloudy 59 15 28 -2 31 31 W 18 30 29.36 994 10 16 0.00 0.00
2:48 am 02:48 Mostly Cloudy 59 15 27 -3 29 29 SSW 14 22 29.36 994 10 16 0.00 0.00
2:58 am 02:58 Mostly Cloudy 59 15.2 28 -2.2 30 30 WNW 12 19 29.36 994 10 16 0.00 0.00
3:05 am 03:05 Mostly Cloudy 59 15 28 -2 31 31 ESE 17 28 29.36 994 10 16 0.00 0.00
3:58 am 03:58 Partly Cloudy 58 14.2 28 -2.4 32 32 W 8 13 29.37 995 10 16 0.00 0.00
4:58 am 04:58 Mostly Cloudy 55 12.6 29 -1.9 37 37 WNW 5 7 29.37 995 10 16 0.00 0.00
5:58 am 05:58 Mostly Cloudy 56 13.5 27 -2.9 32 32 SSE 3 6 29.38 995 10 16 0.00 0.00
6:58 am 06:58 Mostly Cloudy 58 14.2 28 -2.5 32 32 SSW 3 6 29.38 995 10 16 0.00 0.00
7:58 am 07:58 Mostly Cloudy 60 15.3 25 -3.8 27 27 SSE 6 9 29.40 996 10 16 0.00 0.00
8:58 am 08:58 Sunny 60 15.6 30 -1.2 32 32 Calm 29.38 995 10 16 0.00 0.00
9:58 am 09:58 Sunny 66 19 23 -5.1 19 19 E 5 7 29.35 994 10 16 0.00 0.00
10:58 am 10:58 Sunny 69 20.6 18 -7.6 14 14 SE 13 20 29.31 993 10 16 0.00 0.00
11:58 am 11:58 Sunny 69 20.7 19 -7.2 15 15 SE 13 20 29.32 993 10 16 0.00 0.00
12:27 pm 12:27 Mostly Sunny 70 21 19 -7 15 15 ESE 13 20 29.32 993 10 16 0.00 0.00
12:58 pm 12:58 Sunny 69 20.6 18 -7.9 14 14 SSE 15 24 29.31 993 10 16 0.00 0.00
1:10 pm 13:10 Sunny 70 21 19 -7 15 15 S 17 28 29.32 993 10 16 0.00 0.00
1:58 pm 13:58 Sunny 71 21.7 15 -9.3 12 12 S 14 22 29.30 992 10 16 0.00 0.00
2:08 pm 14:08 Mostly Sunny 70 21 18 -8 13 13 SE 15 24 29.29 992 10 16 0.00 0.00
2:58 pm 14:58 Sunny 69 20.4 16 -9 13 13 S 15 24 29.28 992 10 16 0.00 0.00
3:58 pm 15:58 Sunny 69 20.6 17 -8.5 13 13 S 15 24 29.25 990 10 16 0.00 0.00
4:24 pm 16:24 Mostly Sunny 72 22 18 -8 13 13 S 15 24 29.24 990 10 16 0.00 0.00
4:58 pm 16:58 Mostly Sunny 70 21.2 16 -8.9 12 12 SSE 18 30 29.24 990 10 16 0.00 0.00
5:58 pm 17:58 Partly Cloudy 69 20.3 15 -9.5 13 13 SSE 13 20 29.23 990 10 16 0.00 0.00
6:58 pm 18:58 Sunny 68 20.2 9 -12.8 10 10 S 16 26 29.23 990 10 16 0.00 0.00
7:58 pm 19:58 Mostly Clear 64 17.9 12 -10.9 13 13 Calm 29.24 990 10 16 0.00 0.00
8:58 pm 20:58 Mostly Cloudy 63 17.4 12 -10.9 13 13 WNW 3 6 29.27 991 10 16 0.00 0.00
9:58 pm 21:58 Clear 60 15.8 11 -11.9 14 14 WNW 7 11 29.23 990 10 16 0.00 0.00
10:58 pm 22:58 Clear 60 15.6 9 -12.9 13 13 W 3 6 29.25 990 10 16 0.00 0.00
11:58 pm 23:58 Partly Cloudy 64 17.7 3 -16 9 9 S 8 13 29.21 989 10 16 0.00 0.00

Powered by AerisWeather